MST,Max TemperatureF,Mean TemperatureF,Min TemperatureF,Max Dew PointF,MeanDew PointF,Min DewpointF,Max Humidity, Mean Humidity, Min Humidity, Max Sea Level PressureIn, Mean Sea Level PressureIn, Min Sea Level PressureIn, Max VisibilityMiles, Mean VisibilityMiles, Min VisibilityMiles, Max Wind SpeedMPH, Mean Wind SpeedMPH, Max Gust SpeedMPH,PrecipitationIn, CloudCover, Events, WindDirDegrees
2012-12-1,48,40,31,40,34,30,100,84,67,29.76,29.70,29.65,10,8,1,61,5,68,0.12,6,Rain,202
2012-12-2,45,40,34,39,34,30,100,85,70,29.77,29.43,29.23,10,10,7,24,7,30,0.24,7,Rain,210
2012-12-3,46,41,36,34,32,30,85,72,58,30.12,29.97,29.79,10,10,10,17,8,24,0.01,8,Rain,196
2012-12-4,47,39,30,39,34,30,100,86,71,30.07,29.91,29.73,10,10,8,22,8,29,0.07,7,Rain,191
2012-12-5,47,38,28,41,27,19,89,63,37,30.14,29.92,29.65,10,10,10,28,11,37,0.06,5,Rain,219
2012-12-6,34,30,25,30,27,19,100,85,69,30.14,30.02,29.87,10,8,2,15,8,20,0.01,7,Snow,161
2012-12-7,33,30,26,30,29,26,100,93,85,29.99,29.80,29.62,10,6,0,18,6,23,0.12,8,Fog-Snow,162
2012-12-8,28,19,10,26,20,10,100,91,81,30.33,30.06,29.76,10,6,1,5,2,5,0.02,7,Snow,22
2012-12-9,25,17,9,21,15,9,92,83,74,30.44,30.30,30.11,10,9,2,9,5,10,0.01,7,Snow,181
2012-12-10,34,24,14,28,25,21,96,83,69,30.14,30.10,30.04,10,10,10,10,3,13,0.00,8,,203
2012-12-11,39,36,32,34,31,28,100,88,76,30.01,29.69,29.54,10,8,2,15,7,18,0.07,8,Rain-Snow,172
2012-12-12,35,31,27,34,32,27,100,96,92,29.92,29.69,29.52,10,4,0,8,1,8,0.15,8,Fog-Rain-Snow,219
2012-12-13,35,31,26,28,25,21,92,81,70,29.99,29.93,29.84,10,10,10,22,4,23,0.00,7,,203
2012-12-14,28,20,11,22,18,10,96,89,81,29.95,29.85,29.72,10,9,3,7,0,8,T,6,Snow,235
2012-12-15,30,26,21,26,23,21,100,89,78,29.95,29.84,29.68,10,9,6,6,0,6,T,8,Snow,290
2012-12-16,35,29,22,24,22,19,100,76,52,29.74,29.66,29.46,10,10,7,16,5,24,T,7,,219
2012-12-17,39,33,26,32,27,20,92,76,59,29.65,29.34,29.21,10,6,1,23,12,30,0.10,8,Rain-Snow,187
2012-12-18,31,25,19,21,16,14,92,71,49,29.98,29.86,29.67,10,10,10,18,6,22,T,5,,218
2012-12-19,30,24,17,19,16,14,92,73,53,30.12,30.07,29.98,10,10,10,14,4,17,0.00,8,,178
2012-12-20,38,33,28,26,23,19,78,67,56,30.06,29.97,29.90,10,10,10,14,5,21,0.00,8,,196
2012-12-21,36,33,30,34,32,27,96,87,78,29.99,29.92,29.84,10,9,6,12,1,15,0.05,8,Rain-Snow,12
2012-12-22,36,34,31,34,31,29,100,91,82,29.90,29.80,29.69,10,10,7,13,4,16,0.05,8,Rain-Snow,9
2012-12-23,38,31,23,32,28,22,96,83,70,29.98,29.86,29.73,10,10,2,15,6,20,0.01,5,Snow,165
2012-12-24,31,24,17,24,12,7,85,73,61,30.29,29.99,29.74,10,7,0,26,17,32,0.01,8,Fog-Snow,22
2012-12-25,24,21,17,14,12,8,77,70,62,30.32,30.14,29.84,10,8,1,16,8,21,0.02,6,Snow,21
2012-12-26,25,21,16,20,17,13,91,82,73,29.98,29.90,29.80,10,7,2,10,1,31,0.02,8,Snow,6
2012-12-27,27,24,20,23,20,18,96,90,84,30.11,30.02,29.92,10,5,1,12,0,56,0.04,8,Snow,110
2012-12-28,30,21,12,24,20,15,100,89,78,30.26,30.20,30.11,10,10,8,3,0,18,0.00,7,,255
2012-12-29,29,23,16,25,19,14,100,88,75,30.25,30.16,30.05,10,9,2,5,0,5,0.01,7,Snow,223
2012-12-30,26,23,20,23,21,20,100,91,81,30.29,30.21,30.06,10,9,5,2,0,2,T,8,Snow,250
2012-12-31,28,24,20,22,20,19,100,85,69,30.40,30.32,30.18,10,10,9,3,0,3,T,8,Snow,-1